Location: *
(51.5000°N, 0.1100°W)
Time: 01:24:44
(UTC+00:00)

MSX - Pass Details

Date: 12 August 2024
Orbit: 895 x 904 km, 99.0° (Epoch: 09 September)

Event Time Altitude Azimuth Distance (km) Brightness Sun altitude
Rises 00:25:17 0° 26° (NNE) 3,544 8.1 -23.5°
Reaches altitude 10° 00:28:36 10° 46° (NE) 2,597 6.9 -23.4°
Maximum altitude 00:32:23 18° 87° (E) 2,092 5.8 -23.4°
Enters shadow 00:35:06 13° 119° (ESE) 2,359 5.8 -23.3°
